Location: Be Tobo
(6.6442°N, 10.6239°W)
Time: 01:36:32
(UTC+00:00)

CZ-2D R/B - Pass Details

Date: 18 September 2020
Orbit: 520 x 539 km, 97.4° (Epoch: 21 October)

Event Time Altitude Azimuth Distance (km) Brightness Sun altitude
Rises 19:39:37 0° 175° (S) 2,676 6.7 -15.5°
Reaches altitude 10° 19:41:45 10° 179° (S) 1,787 5.9 -16.1°
Maximum altitude 19:45:33 61° 259° (W) 612 3.8 -17.0°
Drops below altitude 10° 19:49:22 10° 340° (NNW) 1,789 6.2 -17.9°
Sets 19:51:30 0° 344° (NNW) 2,679 7.1 -18.5°
